Simultaneous Nadir Overpasses (SNOs) Predictions

Prediction of SNOs near US between AQUA and NPP Satellite Orbit:

Table of predicted SNOs near US for the next 10.0 days since TLE Epoch: 2/6/2021
Index Date (AQUA) Time (AQUA) AQUA Lat,Lon Date (NPP) Time (NPP) NPP Lat,Lon Distance(km) Time Diff (sec)
1 02/07/2021 06:30:27 45.76, -65.26 02/07/2021 06:30:16 46.11, -67.28 161.31 11
2 02/07/2021 08:08:10 49.92, -88.34 02/07/2021 08:10:31 50.43, -90.83 186.12 141
3 02/07/2021 09:47:03 49.92,-113.06 02/07/2021 09:51:59 50.53,-116.15 230.50 296
4 02/09/2021 19:06:20 49.95, -92.55 02/09/2021 19:00:48 49.63, -94.39 137.32 332
5 02/09/2021 20:45:13 49.95,-117.26 02/09/2021 20:42:16 49.52,-119.72 182.63 177
6 02/12/2021 10:12:05 26.72,-124.99 02/12/2021 10:05:36 25.18,-126.13 205.93 389
7 02/15/2021 07:18:45 49.90, -75.99 02/15/2021 07:19:47 50.33, -78.19 164.01 62
8 02/15/2021 08:57:38 49.90,-100.71 02/15/2021 09:01:15 50.44,-103.51 208.50 217
